Theta_e
326 328 331 332 332 333 335 335 335 335 334 333 333 333 331 329 329 328 328 329 329 328 329 329 329 328 330 331 330 332 334 335 335 335 336 335 335 336 335 334 334 335 335 333 334 337 334 332 332 332 332 331 330 328 328 330 329 328 328 327 326 324 323 326 327 327 326 325 327 327 327 330 331 331 329 329 328 327 326 327 327 328 327 327 327
323 324 328 331 331 331 333 334 334 332 332 332 332 332 331 329 328 327 328 328 329 329 329 329 330 330 329 330 330 331 333 333 332 335 335 335 335 335 334 333 333 334 335 334 335 335 332 332 332 332 332 329 330 330 331 331 328 328 328 326 326 325 324 327 327 326 321 323 322 321 323 326 328 329 328 328 327 325 326 327 327 326 327 326 326
319 322 326 330 330 330 332 332 333 333 332 332 332 332 331 329 328 327 327 328 328 329 329 328 329 330 331 331 331 331 333 334 333 335 336 335 335 335 334 333 333 333 334 335 334 333 332 331 332 333 332 332 330 329 331 328 327 327 326 325 325 325 325 327 327 322 320 320 323 321 318 318 322 325 327 327 326 326 326 326 327 327 327 325 324
319 321 324 328 329 329 330 330 331 333 332 331 331 331 331 330 327 326 326 328 328 329 330 330 331 330 329 330 332 331 330 333 332 332 333 334 333 333 332 332 332 332 334 334 334 332 330 330 331 331 331 332 330 328 329 328 327 326 325 326 326 323 323 325 328 323 324 322 313 312 317 318 315 318 321 325 328 327 326 325 327 326 326 326 324
318 319 321 326 327 328 329 330 332 332 331 330 330 330 330 329 327 326 326 327 328 329 329 329 330 327 329 331 331 331 332 331 330 331 332 333 332 331 331 331 332 332 333 333 334 331 330 330 330 329 330 330 330 328 329 328 327 326 326 326 325 324 322 322 325 326 325 323 319 316 314 314 313 318 320 321 326 325 326 326 327 326 324 325 324
318 320 322 325 327 328 329 330 331 332 331 331 330 330 330 329 327 326 326 327 328 329 329 329 328 327 327 327 326 327 327 328 328 329 331 331 331 332 330 332 333 332 333 333 334 332 330 330 330 329 329 329 329 329 329 329 329 328 327 327 326 326 325 324 323 325 326 325 320 318 318 312 314 319 319 313 323 325 324 324 323 324 323 324 323
320 321 323 324 324 325 327 330 331 331 331 331 329 329 331 330 328 327 327 327 328 328 329 329 327 326 327 327 327 327 327 329 330 332 333 332 330 329 329 329 332 331 332 333 332 332 330 330 330 330 329 328 330 328 328 328 329 330 328 328 327 327 326 324 324 323 325 323 324 322 323 318 322 319 314 317 315 320 323 320 320 323 323 323 323
320 319 321 323 323 323 323 327 330 331 331 330 329 328 329 330 329 328 328 328 329 329 328 329 327 326 325 325 326 325 327 327 328 330 332 332 330 328 329 329 332 332 331 332 332 331 330 330 330 330 329 329 330 329 328 328 328 329 327 328 329 328 327 325 323 324 323 321 322 320 321 321 321 317 319 318 317 315 317 322 322 320 321 322 323
320 319 320 321 321 322 324 326 329 330 325 323 325 327 327 327 330 330 329 329 329 329 328 328 328 327 326 325 325 324 325 325 327 329 330 332 330 329 329 330 330 331 332 331 331 332 332 330 330 330 330 329 331 331 329 330 329 328 327 327 327 327 326 326 325 324 322 321 321 317 320 319 318 319 320 317 316 316 316 318 318 320 320 320 320
322 322 321 320 321 322 323 324 324 322 322 323 325 326 326 325 326 331 330 329 328 328 328 327 327 327 326 325 324 325 326 325 327 327 328 329 328 328 328 328 329 329 330 332 331 332 332 331 331 330 330 331 331 331 330 330 328 328 328 327 327 326 324 326 326 324 323 322 322 321 319 316 317 316 315 315 317 315 316 316 318 318 316 318 320
321 321 322 321 322 322 322 321 322 322 322 323 323 324 324 325 324 326 331 330 330 327 326 326 326 326 326 325 325 325 326 326 326 326 327 327 327 327 326 327 327 328 328 331 331 331 331 331 331 331 331 332 332 330 329 329 328 329 328 328 328 327 324 324 323 323 323 322 321 323 321 320 318 315 316 316 315 313 316 317 317 317 316 315 320
320 320 321 322 322 322 322 321 321 321 321 319 320 323 324 324 324 323 324 326 330 330 327 325 325 326 325 325 325 325 326 327 326 327 328 327 326 326 326 325 325 327 328 330 330 331 331 330 330 330 331 330 330 329 329 329 329 330 329 328 327 326 325 325 323 322 322 322 321 321 322 321 316 318 319 318 317 316 317 316 315 315 317 316 321
316 319 320 320 320 321 321 321 321 320 319 319 320 321 324 324 324 323 324 326 329 330 329 328 326 326 326 325 325 325 326 327 326 326 327 327 326 326 325 325 325 326 328 329 329 330 330 329 328 328 328 329 328 329 329 330 330 329 328 327 326 326 325 324 323 322 323 323 322 321 322 321 319 318 321 319 318 318 317 315 314 316 312 314 317
313 313 313 315 317 318 319 319 320 319 319 318 318 320 324 324 325 326 326 328 328 329 329 329 328 327 327 326 325 327 326 326 326 327 327 328 327 326 326 326 326 327 328 329 329 329 329 329 329 329 328 328 328 329 330 330 331 330 328 327 326 326 325 325 324 322 322 322 322 321 321 321 319 321 321 320 318 318 316 316 315 313 314 315 316
315 316 316 314 315 316 316 317 316 314 317 317 318 320 323 323 324 326 326 327 328 329 329 329 329 328 328 327 327 327 326 325 326 327 328 327 327 327 326 326 326 327 328 328 328 328 328 329 328 328 328 328 327 328 330 329 329 330 329 328 327 326 326 325 323 324 324 323 321 322 321 321 320 321 322 321 321 320 319 318 316 313 311 312 312
316 316 317 318 317 316 315 317 317 318 319 320 320 320 320 322 324 325 328 327 328 328 329 330 329 328 327 326 326 327 326 326 324 325 326 327 326 326 324 325 327 326 327 327 327 328 328 327 327 327 328 327 327 328 328 328 327 328 326 327 326 329 326 325 324 324 324 322 321 320 322 322 322 322 322 322 321 321 320 319 318 316 313 310 310
316 315 315 317 319 319 318 318 318 319 320 321 320 319 320 321 322 323 324 326 327 328 328 329 328 328 327 326 326 326 325 325 325 324 323 323 324 325 326 326 326 327 327 326 326 326 326 326 326 326 326 326 326 327 326 325 325 326 326 325 326 325 326 325 324 325 323 321 321 322 323 322 321 321 321 322 322 321 320 319 319 317 316 313 309
317 317 317 317 318 319 320 320 321 320 318 318 319 321 320 321 323 323 322 322 324 326 326 325 325 327 326 324 325 326 326 326 324 324 323 323 323 325 325 324 325 327 328 327 324 324 325 329 324 324 325 325 325 325 325 325 324 324 326 326 326 326 324 322 323 324 323 322 320 321 320 321 319 320 322 321 322 321 319 319 317 315 315 314 311
312 314 315 316 317 318 319 320 321 321 319 319 320 321 322 322 322 323 324 324 324 326 325 328 329 328 327 324 324 326 327 326 325 325 324 325 325 325 325 325 325 324 325 322 322 323 323 323 324 323 323 324 324 324 323 324 324 323 322 323 323 326 325 323 322 324 322 323 322 321 319 319 319 320 319 320 320 321 321 319 316 316 315 314 311
309 310 312 313 314 316 318 319 320 321 320 319 321 322 322 323 324 325 325 325 326 327 327 327 328 328 327 326 326 326 325 326 326 324 324 324 326 325 325 324 324 324 323 323 322 321 321 322 323 323 322 322 323 322 322 323 323 323 322 323 323 325 325 325 323 322 327 323 322 321 319 321 319 320 320 320 320 320 320 320 319 317 315 314 312
307 308 308 310 311 313 314 316 318 320 321 320 320 320 321 321 322 325 324 324 325 326 326 327 326 324 325 326 326 325 324 325 325 324 323 325 326 325 325 325 324 323 323 323 322 321 322 323 323 322 321 321 322 320 321 322 322 321 321 322 323 324 325 323 323 321 324 322 321 321 320 320 319 321 319 321 321 320 320 320 320 318 316 314 312
305 306 307 307 308 309 311 312 314 316 317 319 321 321 321 320 321 321 323 324 323 323 325 327 327 322 321 323 326 325 324 324 323 323 324 324 325 325 325 324 323 323 323 322 322 322 321 322 321 320 320 321 321 321 320 321 321 320 320 323 323 323 323 322 322 323 321 324 321 321 320 319 320 322 319 322 321 320 319 319 317 318 316 314 312
303 304 305 305 306 307 308 309 310 312 314 316 318 320 319 318 319 322 322 321 322 323 324 325 324 321 320 322 325 325 323 324 323 323 324 324 325 325 325 323 323 322 323 322 322 321 321 320 320 320 320 320 321 320 319 320 320 320 319 319 322 322 322 322 322 323 323 322 320 320 320 319 320 319 318 319 318 318 316 317 316 316 316 314 313
302 302 303 304 304 305 305 306 307 309 310 312 314 316 319 319 319 321 322 322 322 322 323 325 323 321 321 322 323 324 324 324 323 323 323 323 324 324 324 323 323 322 322 322 322 321 320 319 320 320 320 320 319 319 319 320 319 318 319 319 320 320 322 322 322 323 323 322 321 319 319 318 318 317 316 316 315 314 312 313 314 314 314 313 311
299 299 300 302 302 302 303 304 306 307 308 310 312 314 315 317 320 320 321 322 323 323 323 324 324 322 321 321 322 322 323 322 322 322 323 323 324 324 323 323 323 322 322 322 322 321 319 319 320 320 320 319 319 319 317 316 318 318 319 319 320 320 321 321 322 323 326 322 320 320 318 317 316 317 317 315 312 311 312 311 313 312 312 311 310
298 299 299 299 300 301 302 303 305 306 307 308 310 312 313 314 316 319 321 321 322 323 323 323 323 322 321 320 321 320 321 321 322 322 322 323 324 323 322 323 323 322 321 321 321 320 319 318 319 320 319 318 317 317 317 317 317 316 317 318 319 320 321 322 322 323 323 322 321 318 318 317 317 316 314 313 312 310 309 309 311 311 311 310 307
297 298 298 299 299 300 301 302 304 305 306 307 308 310 311 312 314 316 319 321 320 321 321 321 323 322 320 320 321 320 321 321 322 322 323 323 323 323 322 322 322 322 320 320 321 319 318 317 316 316 314 313 313 312 313 314 316 316 318 319 319 320 320 321 322 322 320 319 318 319 317 316 315 314 314 314 313 312 313 310 309 310 310 309 307
296 296 297 298 298 299 300 301 302 304 305 305 307 309 310 311 312 314 316 319 320 320 321 321 322 322 320 320 321 320 321 321 322 322 323 323 322 321 321 320 321 320 320 320 318 315 314 314 312 311 309 309 309 308 309 312 314 316 317 318 318 317 318 319 320 320 320 319 318 318 316 315 315 314 314 313 314 314 312 311 310 311 310 309 308
295 295 296 297 297 298 299 300 301 302 303 304 306 308 309 310 312 313 315 317 320 320 321 322 320 319 319 319 319 320 320 320 322 322 322 322 321 319 319 319 319 319 319 317 315 314 312 311 310 309 307 307 306 304 304 304 311 315 315 316 317 317 317 317 318 318 318 317 314 312 312 312 315 315 311 312 314 315 313 312 311 311 311 310 309
294 295 295 296 297 298 298 299 300 301 302 303 304 306 307 309 310 312 313 317 320 320 321 321 320 319 320 319 319 320 320 320 320 320 320 320 319 318 318 317 317 316 315 315 314 313 311 310 308 307 306 305 304 303 301 299 304 314 315 315 315 316 317 316 316 312 311 311 312 312 315 314 311 309 304 300 300 304 309 313 311 312 311 311 310
294 295 295 296 297 297 298 298 299 300 302 302 303 305 307 308 309 310 312 317 320 319 319 319 319 320 319 319 320 320 320 320 319 318 318 318 316 317 317 317 316 315 314 313 312 311 310 309 307 306 304 303 302 300 295 294 298 307 314 314 314 313 314 315 313 310 309 311 313 314 315 318 314 311 305 298 296 297 298 299 300 305 311 311 309
293 294 295 295 295 296 297 297 298 299 301 302 303 304 305 306 308 309 311 313 317 318 318 318 318 319 319 319 319 319 318 318 318 316 317 317 318 318 317 315 314 313 313 312 311 310 309 308 307 305 304 302 300 297 293 294 297 302 308 315 315 315 314 313 312 313 314 315 315 315 315 316 316 314 311 308 305 298 295 296 296 297 296 296 301
293 294 294 294 295 296 296 297 298 298 299 301 302 303 303 305 307 309 310 310 311 314 316 316 318 318 318 318 318 317 316 315 316 316 317 317 318 317 316 314 312 312 311 310 309 308 307 307 306 305 303 302 300 295 293 295 298 302 304 311 315 315 314 314 316 316 315 315 314 314 313 312 313 318 315 312 313 312 303 301 303 303 302 298 295
293 294 294 294 295 295 296 297 297 298 299 300 301 302 303 305 306 307 308 309 309 310 312 315 315 315 316 316 316 316 316 316 316 316 317 316 316 315 314 313 312 311 309 308 307 307 306 305 304 303 301 300 299 295 293 294 299 302 303 308 316 316 316 316 316 316 315 314 314 313 311 309 306 306 307 309 311 312 310 310 310 310 310 307 300
292 293 293 294 294 295 295 296 296 298 298 298 298 300 302 303 304 304 306 307 308 308 309 311 312 314 314 315 315 315 314 315 316 317 316 315 315 314 314 312 311 310 309 307 306 305 304 304 303 302 302 300 298 293 293 294 298 303 303 307 317 317 316 316 316 316 316 316 315 315 311 307 306 304 301 300 309 310 311 310 309 309 308 308 308
293 293 293 294 294 294 295 295 297 297 297 298 298 299 300 301 303 303 304 304 305 306 307 308 309 310 312 314 314 313 314 313 313 315 315 314 313 312 311 311 309 308 307 306 304 303 302 301 301 302 302 300 299 293 293 295 298 304 306 314 316 316 315 314 314 315 316 316 313 311 308 306 304 303 299 294 300 310 314 313 312 311 310 308 309
294 295 294 295 295 295 295 296 296 296 296 297 298 299 299 299 300 302 302 302 303 303 304 306 308 309 310 311 312 313 313 313 313 313 313 312 311 310 309 309 306 305 303 302 302 301 302 301 301 301 300 299 298 295 293 295 298 304 307 315 314 312 310 308 306 306 307 308 309 308 306 305 303 301 294 294 299 307 314 313 312 311 310 309 308
294 295 296 296 296 296 296 296 296 296 296 297 298 298 297 297 298 299 300 301 301 301 303 304 305 308 309 309 310 310 311 311 312 311 311 311 310 310 308 308 305 304 302 301 301 300 300 299 298 298 299 298 296 295 293 295 297 301 308 314 311 308 306 303 301 301 301 301 303 306 306 301 300 298 291 292 295 306 309 309 310 309 308 308 306
294 294 294 295 296 297 297 296 296 295 296 297 298 298 297 297 298 298 298 298 299 300 301 302 303 305 308 309 309 309 309 309 309 309 310 309 308 307 307 307 306 305 303 303 302 300 299 298 298 298 301 297 295 295 293 294 295 299 308 312 310 307 304 302 301 299 299 299 299 298 298 298 298 293 290 291 292 301 305 305 306 305 303 302 302
295 295 296 296 296 296 296 295 295 295 297 297 298 297 297 297 297 297 297 297 298 299 300 301 302 302 303 305 307 308 308 308 308 308 308 308 308 308 307 306 305 304 302 302 301 300 298 297 297 297 297 297 296 295 294 293 294 296 301 310 309 306 303 302 301 300 299 298 298 297 296 290 290 290 290 290 290 292 301 302 302 300 299 299 299
295 295 296 295 295 295 295 296 296 297 297 297 297 296 296 296 296 296 296 297 299 300 299 299 299 300 301 301 303 303 305 307 308 308 308 308 308 307 306 305 303 303 302 301 299 298 297 296 297 297 298 298 298 296 294 292 293 294 296 302 308 307 305 302 299 298 298 297 297 296 296 292 290 290 290 289 289 287 290 298 299 299 297 294 293
296 296 295 295 294 294 295 296 296 297 298 297 297 296 296 296 296 295 296 298 299 298 298 298 297 298 299 299 300 301 303 303 304 306 306 306 307 308 306 305 304 302 300 298 297 296 296 296 296 297 296 296 298 298 296 293 292 293 293 296 301 301 301 300 298 298 297 297 296 295 295 291 290 290 290 290 289 287 288 296 290 288 288 288 292
293 293 294 295 293 293 294 294 296 297 297 297 297 295 294 295 295 296 297 298 297 297 297 296 296 297 297 298 299 299 299 300 300 301 302 302 303 304 305 305 303 300 298 297 297 297 296 296 296 296 295 295 296 296 294 294 292 292 292 292 293 296 295 300 298 297 296 295 295 294 295 292 290 290 290 291 292 292 293 290 286 287 287 289 294
294 294 294 295 293 294 294 294 295 296 297 297 297 296 295 295 295 297 298 298 298 297 297 296 295 295 296 296 297 298 298 297 298 298 298 298 299 301 301 303 303 300 297 297 296 296 296 295 295 295 294 294 294 294 293 292 293 291 291 291 291 291 293 295 295 294 293 293 292 292 292 290 291 291 292 292 291 292 291 289 290 290 292 294 296
294 294 295 295 294 294 294 294 295 296 296 296 297 296 295 295 296 297 297 297 298 298 297 295 294 294 294 295 295 294 295 295 295 296 295 296 297 298 298 299 301 301 299 297 296 296 296 296 295 293 293 293 293 292 292 292 291 291 290 290 290 290 290 290 291 291 291 291 290 291 291 291 292 292 292 293 293 291 290 291 292 293 296 295 295
295 295 295 295 295 295 294 294 295 296 296 297 297 297 296 296 297 297 297 297 296 297 296 296 295 294 293 293 292 292 292 292 293 293 293 293 294 294 295 296 297 298 298 298 297 296 296 294 292 292 291 291 291 290 290 290 291 292 291 290 290 290 291 290 290 289 290 291 291 292 292 292 292 293 294 293 293 293 292 293 293 294 294 294 293
294 295 295 295 295 294 294 294 294 295 296 297 297 297 297 298 297 297 297 298 297 296 296 296 296 295 293 292 291 291 290 290 290 291 291 291 291 291 291 292 293 294 295 295 295 294 293 292 291 290 290 289 289 288 288 288 288 288 288 289 289 290 291 291 291 291 293 293 293 293 292 291 291 291 291 291 292 292 293 294 294 293 293 292 292
294 295 295 295 295 295 294 295 294 295 296 297 297 297 297 298 298 298 297 297 296 296 296 296 296 296 294 293 292 289 290 290 289 289 289 290 290 290 289 288 288 290 292 293 293 293 292 291 290 290 289 289 288 288 287 286 287 287 287 287 288 288 288 289 290 290 292 293 293 292 292 292 292 292 291 291 291 291 290 290 292 292 292 292 293
294 294 295 294 295 295 295 295 295 296 297 297 296 297 297 297 297 298 298 297 296 295 296 296 296 296 294 293 293 292 291 291 290 290 289 288 288 289 289 289 289 287 288 291 292 291 291 291 291 290 290 289 288 288 287 286 285 286 286 288 287 287 287 288 288 289 292 291 291 290 289 290 289 287 287 288 288 289 288 289 290 290 290 290 289
295 295 295 295 295 295 294 294 294 294 296 296 296 296 296 297 297 297 297 296 296 296 296 295 295 295 296 294 293 292 292 291 291 290 290 289 287 288 289 289 288 289 288 288 289 289 291 290 290 289 289 290 290 289 287 286 286 287 287 286 286 286 287 287 289 290 291 289 287 287 287 287 287 287 286 286 285 285 285 286 286 287 286 288 287
294 294 295 295 295 295 295 294 294 294 294 294 294 295 296 296 297 297 296 295 295 295 294 294 294 293 293 294 293 292 292 291 291 290 290 289 289 289 288 288 289 289 288 288 288 288 289 289 291 289 287 287 287 286 286 287 287 288 286 286 286 287 287 288 289 289 288 287 286 286 285 285 285 285 285 284 283 284 283 284 284 284 284 285 284
Wind_Speed
8 8 9 12 12 11 11 10 10 10 11 12 11 11 10 10 11 11 8 9 9 9 8 8 7 7 5 7 6 7 8 8 7 7 7 7 7 6 6 6 5 5 5 6 6 6 5 5 5 5 4 4 5 6 4 9 7 7 5 5 8 6 3 4 5 6 7 5 5 5 5 4 3 3 3 3 2 3 2 3 3 4 3 3 2
4 5 7 10 11 12 11 11 13 14 11 12 13 13 11 12 13 11 9 10 10 9 9 8 8 9 8 8 7 8 8 9 8 7 7 6 7 6 6 6 6 5 5 5 4 5 5 5 5 6 5 5 5 4 6 10 9 7 6 5 1 6 5 5 6 7 2 5 6 4 4 3 3 3 4 4 4 3 2 3 3 2 3 2 1
4 4 6 10 13 13 11 11 11 14 14 13 12 12 13 11 11 11 10 10 10 8 8 8 7 7 9 7 10 8 6 4 4 4 5 6 6 6 6 6 6 5 5 5 5 4 4 5 4 4 5 5 5 5 7 8 8 8 8 7 7 1 3 4 7 2 5 3 5 5 3 2 1 3 4 3 3 3 2 3 2 3 2 1 1
11 11 11 10 11 10 10 10 10 11 11 10 10 12 11 11 10 10 11 9 9 10 11 10 8 3 5 5 3 2 2 2 3 2 3 4 5 4 3 4 5 5 5 5 3 3 4 5 4 3 5 4 6 6 7 8 9 8 6 5 7 7 3 5 5 2 6 10 3 1 2 1 3 2 3 3 3 4 4 3 1 2 1 2 2
9 5 6 6 8 8 10 10 11 11 10 10 10 10 9 12 11 12 11 11 10 10 10 6 5 5 5 6 4 5 3 2 3 3 4 4 4 3 4 3 4 5 4 4 4 4 3 3 4 4 4 4 4 5 6 8 9 9 9 7 7 8 7 5 7 4 6 2 7 5 3 1 1 2 4 2 2 3 3 3 3 2 3 2 2
7 6 9 9 10 10 10 10 10 8 7 6 7 10 12 12 12 10 9 9 9 11 10 7 6 7 7 7 7 5 6 7 8 7 6 6 6 3 2 3 3 3 4 4 4 4 4 4 4 4 3 4 4 4 4 6 7 8 9 8 8 6 10 7 6 4 7 5 2 3 6 5 6 4 3 3 1 2 2 2 2 1 2 3 2
7 8 7 10 10 11 9 9 9 9 11 7 8 8 12 12 11 12 11 10 9 9 9 7 7 7 8 9 8 7 8 5 3 4 4 3 2 4 3 3 3 4 4 5 4 4 4 4 4 4 4 4 4 3 4 5 6 7 3 5 7 7 6 8 7 5 4 3 3 1 2 2 9 9 4 4 3 1 1 1 1 0 0 1 2
7 8 9 9 10 12 12 11 11 12 10 7 6 4 7 8 8 11 9 9 9 8 9 9 9 7 6 5 5 5 6 6 4 3 4 3 3 4 4 4 4 5 5 5 6 6 5 4 5 5 5 5 4 5 5 4 5 6 6 5 7 7 7 8 6 7 9 5 1 2 3 5 7 4 5 5 6 6 3 2 1 1 0 1 1
6 7 8 9 10 11 11 10 9 8 10 11 10 7 6 4 4 4 6 7 7 9 10 8 7 8 7 6 5 3 4 4 4 4 5 4 3 2 4 5 4 5 5 6 5 5 5 5 5 6 6 5 4 4 4 5 6 7 6 6 6 6 5 5 7 7 6 6 4 3 5 5 3 3 6 3 4 5 3 3 2 1 1 2 2
10 9 6 5 6 6 5 6 4 1 7 4 8 8 6 7 11 9 6 4 1 3 5 6 6 7 7 6 6 5 4 4 5 6 6 5 5 5 4 5 5 5 4 4 5 5 5 5 5 6 5 5 4 4 4 5 5 5 7 6 6 6 3 5 8 6 5 4 4 6 5 3 4 3 2 4 4 2 5 7 4 5 4 2 0
8 9 8 6 4 6 8 8 5 0 1 3 6 9 10 8 5 11 8 4 3 2 1 4 4 6 7 7 7 7 6 6 6 6 6 6 7 6 6 7 6 6 5 5 6 5 5 5 4 4 4 4 4 4 5 6 6 6 5 5 5 6 5 5 3 4 4 4 3 6 8 9 8 5 7 5 5 4 5 4 4 3 3 3 2
9 8 8 8 8 5 4 6 5 5 5 3 1 1 7 9 9 3 7 10 2 3 3 3 4 4 5 6 7 7 8 7 9 9 9 8 8 8 6 5 5 5 6 5 6 6 5 5 3 4 4 4 5 5 5 5 5 5 5 6 5 4 4 5 4 5 4 5 3 4 6 5 3 5 6 6 7 6 8 7 6 3 2 1 2
5 7 8 7 9 10 8 7 7 7 6 2 1 2 4 3 12 10 10 9 6 6 7 5 4 5 5 5 5 6 6 7 8 8 8 8 7 7 6 6 5 5 5 6 5 7 6 6 5 5 5 4 4 4 4 5 5 5 5 5 5 5 6 5 5 5 6 6 5 3 5 4 5 3 6 6 4 6 7 8 3 3 3 2 2
4 3 2 1 4 5 6 7 7 5 3 2 2 0 3 3 5 11 9 7 5 6 8 8 8 8 7 6 5 6 6 6 6 8 8 7 7 7 7 6 6 6 7 6 6 6 5 6 6 5 5 4 4 5 5 5 5 6 5 6 5 5 4 5 5 4 3 4 5 5 4 5 3 4 6 7 7 8 7 8 7 2 2 4 2
6 6 5 5 5 3 1 2 1 3 3 2 3 1 1 2 1 3 7 8 8 7 8 10 9 8 6 5 5 2 0 2 5 6 7 6 6 6 5 4 6 6 7 6 6 6 6 6 5 5 5 4 4 5 5 5 5 5 5 6 5 5 5 5 4 5 5 4 4 5 5 3 4 4 6 6 7 8 9 8 9 8 3 2 3
6 7 7 5 3 4 6 6 5 5 3 3 3 3 4 2 1 1 4 6 7 8 6 8 6 3 3 5 3 1 1 3 4 4 2 3 4 3 1 1 5 6 5 6 6 7 7 7 6 6 6 5 5 5 5 5 5 6 5 4 5 3 5 4 4 4 4 4 4 3 3 3 3 4 5 6 6 7 7 7 7 8 11 6 2
7 7 7 8 6 4 3 3 4 4 3 4 4 2 2 5 6 3 2 4 5 6 8 6 4 5 5 7 7 5 5 5 5 2 1 4 6 3 4 4 3 6 6 6 7 7 8 7 6 6 6 6 5 5 5 4 4 5 5 4 4 3 4 4 3 4 3 3 2 3 4 4 3 3 3 4 5 5 6 7 7 9 8 9 7
9 8 6 5 5 5 2 1 2 1 2 3 4 3 2 1 5 2 1 3 5 1 6 5 7 7 8 10 11 13 11 8 3 5 6 5 2 1 2 2 5 3 6 5 6 6 6 6 6 5 6 6 6 5 5 4 4 5 5 5 4 4 4 3 3 4 4 3 3 2 2 3 2 3 4 3 5 6 6 6 6 2 4 8 6
11 10 10 9 7 5 5 5 4 5 1 2 3 3 2 2 3 3 1 2 1 1 6 6 7 7 7 8 7 7 7 5 6 7 9 9 6 3 1 3 3 4 6 6 6 5 6 6 6 5 5 6 5 5 5 5 4 4 4 5 3 4 5 4 3 3 3 4 4 3 2 3 3 3 3 2 3 5 6 6 5 5 5 4 4
9 10 10 11 11 12 11 9 8 5 4 5 4 4 4 2 1 1 1 3 2 0 4 6 7 6 5 6 7 6 6 6 8 8 7 7 6 4 2 4 9 5 6 7 7 6 6 6 6 6 5 5 6 5 5 5 5 5 4 5 4 4 5 5 3 3 4 4 4 4 3 4 3 3 3 3 4 4 5 6 4 5 5 5 5
8 9 10 11 11 11 11 11 11 11 8 6 6 5 6 5 3 2 3 4 5 5 5 6 5 4 7 7 7 6 7 6 6 6 8 7 7 5 7 9 7 6 7 7 7 6 6 6 6 6 6 5 5 5 4 5 5 5 4 5 4 5 5 4 4 3 2 3 4 4 4 3 3 3 4 4 5 5 4 6 6 5 6 5 6
9 10 10 10 11 12 11 11 11 11 12 12 9 5 5 5 5 3 0 0 2 3 3 5 5 5 6 7 7 7 8 6 6 5 7 6 8 7 6 8 7 6 7 8 7 6 5 6 5 5 5 5 5 5 4 5 6 5 4 4 5 5 5 4 4 4 3 3 4 4 4 3 2 4 3 3 3 3 4 5 6 5 6 6 4
8 9 10 10 10 10 10 11 12 12 11 11 11 9 4 5 6 3 2 2 1 1 1 2 3 5 6 7 5 7 8 7 8 7 8 7 7 6 7 9 7 7 7 8 8 7 6 6 5 5 5 5 5 5 5 5 5 5 5 4 5 5 6 5 5 5 4 3 4 4 4 3 2 3 3 2 4 3 2 4 6 5 6 5 6
8 7 8 9 9 10 11 12 11 12 12 12 11 11 10 6 6 6 4 1 1 2 1 0 2 4 6 6 3 2 7 6 6 8 9 7 6 9 8 6 8 7 8 7 8 7 7 6 5 5 5 5 5 5 5 5 6 5 5 6 5 5 5 5 5 5 5 5 5 4 4 3 3 3 1 2 3 3 5 6 6 5 5 6 5
9 10 9 8 9 11 10 10 10 10 11 10 11 11 10 9 8 9 7 4 2 3 3 6 6 5 6 6 5 3 6 8 9 9 9 8 8 5 8 9 8 8 7 7 6 6 6 6 6 6 5 5 5 5 5 4 5 5 6 6 6 5 5 6 6 6 6 6 5 5 4 3 3 3 1 2 2 3 4 5 5 4 5 5 4
7 8 9 10 8 8 10 11 10 9 10 10 11 11 13 13 12 9 7 4 2 4 7 5 5 6 5 6 5 4 6 8 10 9 10 9 6 5 8 8 8 8 7 6 7 5 6 6 6 5 4 4 3 5 6 6 5 4 4 5 5 6 5 6 5 5 6 5 5 4 4 4 3 2 2 0 1 2 3 4 5 5 4 4 5
8 8 8 9 12 12 11 11 10 10 10 9 9 9 10 10 12 13 12 9 2 3 4 4 5 6 5 5 5 5 6 8 9 10 10 8 9 10 9 8 7 8 7 6 7 7 4 5 4 5 5 4 5 4 3 4 5 5 6 6 6 6 5 5 5 4 4 9 7 1 4 4 3 4 4 4 4 3 4 3 3 5 4 5 4
9 10 12 12 11 11 12 10 11 11 10 10 9 9 9 9 9 10 10 11 7 5 5 6 7 6 5 4 5 5 7 8 9 10 10 8 6 6 6 5 7 8 7 7 6 7 6 7 6 6 4 4 5 5 4 3 3 5 6 5 5 5 5 5 5 6 8 8 4 7 3 4 4 3 4 4 5 5 3 4 2 3 4 5 4
11 11 10 10 11 11 12 12 11 11 12 12 11 10 10 10 9 9 8 8 5 5 6 5 4 3 5 6 5 6 6 6 8 8 8 8 8 6 7 7 6 7 6 7 9 9 10 9 7 7 6 5 6 5 4 3 3 4 4 5 5 5 6 6 5 5 5 5 4 0 7 4 6 8 8 6 5 4 5 5 1 3 5 6 5
12 11 11 10 11 12 12 11 12 13 13 12 11 11 11 11 11 10 9 7 4 3 5 4 5 5 7 4 5 7 7 7 7 6 6 7 5 4 7 6 6 7 8 8 8 9 10 9 9 8 7 6 5 4 7 7 5 4 5 5 4 5 6 6 7 8 7 6 5 6 7 12 11 11 11 12 12 11 9 6 4 4 6 6 6
10 11 11 10 10 10 11 11 12 12 12 11 10 10 11 11 11 12 11 9 3 2 0 6 7 4 5 6 8 9 8 9 8 5 6 4 5 7 8 8 9 9 10 9 9 10 8 8 9 9 8 5 5 4 9 8 6 8 7 5 6 4 5 6 7 8 8 7 6 5 5 7 9 9 10 12 11 12 11 12 11 9 6 6 7
9 9 10 10 10 11 11 11 11 11 11 11 11 10 10 12 11 11 10 10 8 5 2 1 1 2 6 8 9 10 8 8 7 3 6 3 9 9 10 10 10 11 9 9 11 9 8 8 8 8 8 6 5 7 7 8 6 10 9 7 6 6 6 6 7 8 7 7 7 7 6 6 6 6 6 7 8 10 10 10 11 11 12 11 6
8 9 9 9 9 9 9 11 10 10 11 11 10 9 11 10 11 10 10 12 10 9 6 6 3 3 4 5 8 10 9 7 7 4 7 3 11 11 12 12 11 10 9 11 9 9 8 7 8 10 8 5 5 6 7 7 7 10 14 11 7 7 8 6 7 7 7 6 6 7 7 6 5 9 6 5 6 7 9 10 10 10 11 10 11
7 7 7 8 8 8 8 9 9 9 10 9 9 9 8 8 9 11 12 11 11 10 9 7 7 6 3 6 8 9 9 9 7 7 9 6 7 11 10 10 10 10 12 11 10 10 7 8 7 8 8 5 5 8 7 6 7 10 14 11 7 9 8 7 7 6 6 6 5 7 7 6 4 5 4 3 4 6 5 5 5 5 4 5 6
7 7 8 8 8 8 8 9 10 10 9 9 10 11 9 11 11 12 11 11 11 11 11 9 9 9 7 6 6 7 11 10 9 11 12 10 8 9 10 7 8 10 12 11 10 9 7 7 7 6 7 7 5 8 7 6 7 9 14 11 8 8 8 8 7 6 6 5 5 6 7 6 4 4 4 3 3 2 5 5 5 4 4 4 4
6 7 7 7 8 8 8 8 7 8 8 9 9 9 9 9 10 12 11 11 11 12 12 11 10 10 9 6 5 8 9 11 7 11 12 11 9 10 10 8 10 9 8 11 10 8 8 7 6 6 8 8 6 11 9 7 9 10 10 8 7 8 8 8 7 7 6 6 6 7 7 7 5 5 7 9 7 4 4 5 6 4 5 4 6
6 5 6 7 6 6 6 5 6 7 9 9 8 8 8 10 12 11 11 12 13 14 13 12 11 10 10 9 7 6 9 11 9 11 11 12 11 11 9 7 11 9 9 10 10 9 7 7 7 7 9 7 7 11 11 9 9 13 10 8 8 8 8 9 8 7 7 7 6 6 7 7 6 6 7 8 9 6 5 5 5 4 4 4 5
5 5 5 6 7 6 6 6 7 9 9 7 7 8 8 11 11 11 12 13 14 14 12 12 11 10 10 10 10 9 7 8 10 11 10 9 9 10 8 5 11 10 10 9 9 10 9 7 9 8 7 9 8 10 12 11 12 11 11 9 8 9 8 8 7 7 6 7 8 11 7 7 8 5 8 10 10 5 5 4 4 4 5 5 5
5 5 6 7 7 7 6 7 9 10 9 8 7 9 11 11 11 11 12 14 14 13 13 12 11 10 9 10 11 10 8 7 10 8 8 11 9 9 9 7 10 10 9 7 8 10 10 9 8 8 8 10 8 10 13 13 13 11 9 8 9 9 8 7 7 7 6 6 6 8 11 9 7 6 9 10 11 8 5 4 4 6 6 6 5
6 6 6 5 6 6 9 10 10 9 7 8 7 10 12 11 11 11 14 13 12 11 10 10 11 11 10 10 10 11 9 8 8 9 8 7 7 9 10 10 9 8 8 7 7 10 11 8 7 8 9 8 10 9 12 15 14 13 10 8 7 10 9 8 6 6 6 5 5 5 6 8 8 9 9 9 9 9 6 4 5 6 5 5 4
6 6 6 6 6 7 7 7 7 7 7 7 7 10 11 10 11 13 13 10 9 9 10 11 11 12 12 12 11 11 10 10 8 8 7 9 8 9 9 10 8 8 8 9 10 9 10 9 8 8 9 9 8 9 11 14 14 13 12 9 7 8 8 8 7 6 6 6 5 5 4 6 8 9 8 8 8 7 5 5 6 5 2 2 3
4 6 6 6 6 7 8 9 8 8 8 7 7 11 10 10 11 13 10 8 9 10 10 11 12 12 12 12 11 10 10 9 8 8 11 10 8 9 7 7 7 8 10 11 9 9 10 9 8 8 8 9 10 12 9 13 15 15 14 13 8 6 5 8 8 7 6 6 4 3 3 5 7 7 6 6 6 6 6 6 5 4 2 4 4
6 7 7 6 6 7 8 7 7 8 8 7 8 11 9 9 12 9 7 8 9 9 11 11 11 12 12 11 11 12 11 9 10 10 9 9 8 8 7 7 8 9 11 11 10 10 10 9 7 7 6 7 7 9 12 11 14 15 15 15 13 9 8 6 8 7 4 3 2 3 4 6 6 7 7 8 8 9 8 5 4 5 5 5 5
5 5 5 6 6 6 7 7 7 7 8 8 8 9 10 11 11 6 6 8 9 10 11 11 11 11 11 10 10 10 10 10 11 9 9 9 8 7 7 7 7 9 9 9 7 7 8 8 8 7 6 5 5 6 10 12 12 14 14 14 13 11 9 7 6 5 3 3 4 5 4 6 8 10 11 11 11 11 9 10 9 9 8 8 7
5 6 6 5 6 6 6 7 7 7 7 7 8 10 11 12 8 7 7 7 8 9 10 11 10 10 10 9 9 10 10 10 10 10 9 9 9 8 8 6 7 7 8 9 8 7 8 8 7 7 5 4 4 6 6 9 12 12 13 13 13 13 11 8 6 4 4 4 4 5 9 11 12 14 15 14 13 12 12 10 10 11 9 7 7
5 6 6 6 6 6 6 6 7 7 7 6 7 7 10 8 7 8 7 7 7 8 9 10 9 9 9 8 9 10 10 10 10 9 9 7 7 7 7 5 6 6 5 7 7 7 7 7 6 4 4 4 5 5 6 6 6 7 8 11 12 12 12 12 10 7 8 12 15 17 18 17 14 12 11 9 8 8 12 13 13 11 7 7 7
4 5 5 5 5 6 7 7 7 7 5 5 5 5 5 6 8 8 9 8 9 9 8 7 8 7 8 8 9 9 8 9 9 8 8 8 7 7 7 7 6 5 5 6 6 7 7 6 6 5 4 4 4 4 4 5 5 6 6 5 6 7 8 9 9 7 9 10 13 13 11 13 12 15 14 12 10 9 9 8 7 7 7 6 6
3 4 4 4 5 5 5 6 6 7 6 5 5 5 4 4 4 5 6 8 9 9 9 7 7 7 7 7 7 8 9 8 8 8 8 8 7 7 7 7 5 4 5 6 6 6 6 6 5 5 5 5 5 4 4 5 5 5 5 5 6 7 8 6 8 7 7 8 8 9 11 8 9 10 10 9 8 7 7 6 7 6 6 6 6
2 3 2 3 3 4 5 5 5 6 6 6 6 5 4 3 3 3 4 6 8 9 8 8 6 5 6 6 6 6 6 6 7 8 8 6 6 6 6 5 4 2 2 3 7 5 5 3 4 4 6 6 5 5 2 1 1 4 6 6 7 6 5 6 4 3 8 8 10 10 9 10 9 9 9 8 7 8 7 7 7 6 6 6 5
1 2 3 4 4 4 5 5 5 4 4 5 5 5 5 5 4 4 5 6 6 7 6 6 6 5 4 4 4 5 6 6 6 6 6 7 8 9 6 6 5 9 10 9 5 3 3 4 6 3 2 3 6 4 3 3 2 6 10 11 9 8 5 6 7 12 12 11 9 9 8 8 8 8 8 8 7 6 6 6 6 5 5 5 5
1 2 3 3 3 4 4 5 5 5 5 4 4 5 4 5 5 6 6 6 6 6 7 7 7 6 5 4 5 5 5 5 5 5 5 5 5 7 9 9 8 8 9 10 10 8 7 5 4 5 3 6 5 4 3 2 4 7 8 9 9 9 8 7 6 12 12 9 9 9 7 7 7 7 7 5 5 5 5 5 6 5 6 6 5
Wind_Direction
192 184 153 151 151 151 148 139 131 127 132 138 145 153 143 134 133 146 156 162 159 161 168 156 152 139 145 165 173 180 186 192 189 181 175 177 176 174 175 173 170 166 161 161 174 172 171 162 156 158 150 133 127 140 135 118 144 137 155 134 141 134 117 128 123 119 119 88 79 73 63 56 80 95 97 90 85 113 108 117 109 104 86 75 80
177 159 144 145 145 143 139 136 136 135 148 150 162 164 143 141 144 152 163 174 173 176 166 163 175 171 165 182 175 183 188 191 191 189 175 172 173 173 179 173 166 168 161 165 180 170 162 165 165 160 150 138 141 139 116 129 133 131 134 116 174 145 144 154 153 131 104 151 140 112 75 60 63 85 88 62 68 71 90 99 105 101 126 150 135
185 157 149 153 150 142 135 137 144 146 150 166 167 148 144 145 150 154 170 179 179 180 166 177 197 186 172 177 178 179 199 189 179 160 158 163 175 177 177 173 163 166 162 169 175 166 161 161 165 151 143 140 132 129 130 131 136 141 153 148 148 78 105 155 172 166 138 107 99 100 126 125 128 82 59 56 67 104 72 76 96 138 152 165 171
183 178 163 161 149 130 123 128 131 139 151 169 156 146 142 154 159 164 179 185 177 191 190 195 171 108 46 52 55 46 139 109 94 106 129 141 176 172 173 170 166 166 163 166 166 152 165 166 144 139 146 151 148 139 139 142 142 145 150 161 141 134 146 183 214 188 145 137 132 158 132 38 135 97 108 50 47 86 102 108 98 99 75 35 288
168 157 155 133 101 101 122 131 139 146 167 172 154 149 148 159 169 174 179 185 186 192 197 189 123 98 90 78 69 69 67 101 136 147 157 173 167 166 188 179 168 164 157 159 161 161 159 157 149 152 147 151 148 142 153 158 154 162 163 172 165 157 162 173 208 197 199 239 134 118 94 203 246 118 102 43 28 67 59 103 118 132 109 158 260
59 48 64 89 110 109 115 126 137 150 176 173 151 152 152 166 173 177 183 182 188 192 190 174 162 151 145 146 152 163 164 177 189 166 156 182 191 159 154 180 168 153 162 166 156 152 166 170 148 142 132 127 140 147 151 147 147 155 174 175 172 179 160 166 187 212 203 218 235 137 162 168 160 141 136 151 49 65 79 73 114 157 168 178 198
76 94 93 89 92 94 106 130 142 153 202 138 144 158 164 172 175 178 187 182 183 191 180 169 162 166 170 172 171 175 177 188 143 130 158 191 152 166 168 170 166 164 175 169 159 161 171 165 146 146 133 140 148 131 153 171 145 136 156 189 167 158 155 165 173 182 163 255 211 106 120 126 144 146 175 122 131 108 101 91 42 5 31 183 192
110 91 98 108 117 125 132 141 157 180 194 89 90 119 175 184 193 187 191 186 181 180 179 178 167 158 158 161 164 166 184 176 165 141 118 141 185 164 169 188 180 180 175 174 169 166 163 154 147 138 143 160 165 165 169 160 127 112 163 231 154 165 167 160 172 171 172 203 128 84 78 110 128 93 134 156 132 143 143 82 64 14 3 298 279
74 94 109 121 125 127 137 153 175 188 64 57 56 23 343 314 262 254 238 205 181 182 184 176 161 154 154 156 150 140 140 156 151 146 147 148 188 166 178 197 193 187 181 175 173 161 161 163 157 151 160 167 167 179 167 165 158 155 165 192 163 174 176 166 156 182 175 173 129 83 108 113 86 98 129 104 135 140 99 143 163 32 21 304 292
63 74 86 96 112 114 126 133 169 112 77 107 107 104 68 4 331 305 276 288 295 201 193 163 150 146 155 163 155 153 147 146 159 166 166 156 160 207 190 196 193 191 195 181 173 165 157 162 164 158 168 164 173 176 164 168 158 159 171 163 163 164 181 167 176 177 176 162 157 145 130 112 88 91 103 111 72 65 152 163 167 158 155 237 312
70 73 70 74 83 111 131 147 178 55 225 199 149 135 131 118 25 328 294 325 356 314 246 170 154 155 168 166 163 160 164 159 166 173 164 165 165 186 197 200 187 194 193 188 175 166 159 162 162 162 166 167 169 162 170 162 158 158 154 143 153 161 171 180 167 159 151 154 157 152 155 167 167 167 171 164 148 139 120 129 151 173 172 157 220
81 79 79 87 93 96 114 136 162 208 226 241 324 109 146 133 136 112 332 319 308 182 198 191 161 160 165 166 167 165 167 172 180 182 180 178 173 180 200 199 195 189 189 176 169 164 158 164 157 156 166 160 171 165 159 154 146 141 144 149 153 163 164 167 164 154 154 162 171 162 165 164 135 141 164 156 153 155 150 150 164 164 119 201 116
100 125 134 141 142 147 155 166 186 208 213 208 13 14 314 204 152 161 189 217 215 174 187 184 177 177 176 170 168 163 174 179 183 182 183 180 177 179 180 197 182 174 186 177 174 162 159 156 163 161 160 161 159 147 156 142 138 141 145 148 149 156 170 165 165 168 161 165 179 190 161 166 183 153 142 148 131 133 141 141 181 154 144 140 122
13 16 25 104 143 157 166 179 194 202 180 102 27 24 149 203 174 170 189 187 183 183 180 185 188 185 182 170 167 168 180 180 188 184 186 184 174 178 180 184 176 179 175 182 171 157 160 165 164 165 157 155 154 148 148 146 141 146 153 156 165 169 156 163 164 151 155 163 147 157 176 183 185 155 149 139 144 139 151 154 147 137 111 144 125
16 17 12 353 346 342 292 267 288 26 26 26 355 9 240 196 176 169 165 179 175 185 183 189 194 187 174 158 161 95 69 239 201 195 185 178 175 173 178 179 171 170 172 169 154 157 162 154 160 158 160 155 147 141 144 141 149 148 163 167 164 161 159 155 156 152 155 162 164 162 163 170 174 163 153 163 156 163 156 159 151 140 106 125 155
25 26 24 16 350 346 350 337 353 10 6 335 5 18 349 340 37 120 184 188 190 186 195 187 190 168 133 125 119 57 247 231 255 234 225 165 156 119 59 229 163 160 156 149 155 153 156 154 156 158 155 152 153 149 150 147 151 150 155 158 162 161 151 160 166 161 163 168 167 132 139 183 166 163 169 161 169 162 154 157 162 157 150 159 155
27 21 14 8 9 3 346 348 359 2 348 315 313 356 30 349 338 301 225 226 209 202 183 176 149 158 134 108 135 177 223 226 230 242 71 35 37 92 133 278 248 147 153 145 140 143 145 147 146 146 149 151 148 152 151 148 147 149 154 153 158 153 146 165 153 157 162 154 147 165 176 164 164 159 158 159 160 155 160 160 169 173 168 147 161
33 40 33 20 10 21 13 322 353 342 262 283 303 330 58 303 254 268 341 328 310 121 133 164 193 186 158 165 177 183 190 193 139 45 76 121 203 10 91 177 272 202 139 135 130 132 136 140 138 145 147 146 149 152 150 149 141 149 157 161 159 152 152 142 168 156 151 147 158 168 145 146 161 165 179 160 151 162 156 166 173 144 145 162 160
28 25 25 18 14 2 349 354 356 355 293 259 271 317 339 220 214 210 140 58 334 211 197 199 174 184 185 186 179 179 184 159 130 124 148 156 149 152 210 211 213 236 124 127 127 124 127 134 137 141 140 144 149 153 150 150 148 146 157 153 150 151 151 161 179 155 147 146 157 167 144 160 170 183 171 138 118 143 165 162 157 145 146 131 132
26 21 17 16 13 11 10 9 4 357 355 348 350 4 347 331 112 133 161 147 144 199 182 183 196 186 157 167 181 175 166 162 154 157 153 146 130 154 177 218 224 174 134 133 135 133 132 131 138 140 137 143 153 150 150 152 149 158 158 150 160 152 154 164 177 162 145 150 149 157 175 181 181 165 143 128 127 124 136 135 141 166 172 162 143
14 18 14 13 9 6 7 9 10 9 3 0 9 357 346 330 350 33 159 176 173 181 194 212 194 155 146 163 166 161 160 163 158 150 137 153 147 159 181 208 208 143 137 133 135 139 134 134 138 139 140 147 148 145 152 148 153 158 169 157 155 158 160 168 154 162 148 144 153 158 181 198 160 145 149 169 159 151 153 155 151 156 183 172 155
13 11 10 8 8 4 4 5 8 12 11 2 349 354 359 348 330 321 320 269 169 161 182 196 187 148 157 168 167 156 151 161 158 146 142 163 164 169 182 219 170 142 139 136 136 138 135 135 138 136 138 148 150 148 154 145 151 158 165 158 156 158 160 161 158 162 165 159 149 163 188 200 177 151 153 151 125 208 156 165 191 184 183 179 193
19 13 6 5 3 5 3 4 7 5 360 359 357 356 346 325 320 309 232 250 296 315 355 126 161 148 173 195 183 164 166 172 161 145 154 171 159 151 198 196 142 142 139 140 141 141 145 141 132 134 143 152 153 150 156 151 156 159 157 160 157 160 158 158 163 167 169 157 155 172 189 182 131 131 158 180 191 190 174 190 201 201 198 177 186
21 23 17 8 2 1 5 5 3 0 359 356 354 353 349 339 325 326 333 108 82 15 357 324 196 177 187 198 176 168 169 169 159 155 155 157 161 151 223 173 139 138 145 146 147 149 145 146 140 140 153 151 142 151 158 152 157 156 159 162 167 162 164 162 163 166 166 166 174 170 194 167 130 156 190 202 224 197 187 197 204 191 188 168 181
17 15 12 9 13 14 4 359 358 354 353 354 351 346 345 343 333 335 328 14 75 133 170 215 213 197 190 201 176 203 176 155 155 158 144 153 158 145 214 150 140 143 147 149 148 143 142 147 150 153 148 148 161 152 137 152 165 166 157 156 157 156 162 168 164 168 172 173 174 181 173 138 136 141 188 259 278 251 218 187 172 170 167 162 153
24 15 13 12 8 8 8 5 358 352 347 346 349 349 344 341 338 332 315 263 209 199 214 208 208 200 198 196 187 184 172 150 147 144 140 147 143 183 202 146 146 145 147 147 148 148 149 155 159 155 139 140 144 137 152 164 156 142 131 130 135 137 152 157 159 166 169 176 173 159 148 132 129 151 191 245 193 175 150 164 152 160 157 148 138
25 18 11 12 13 8 1 357 354 348 351 349 348 347 342 337 332 330 322 298 256 233 229 216 216 210 204 193 187 178 157 149 139 135 146 154 159 196 174 145 148 139 143 143 149 153 139 116 84 79 84 97 89 76 77 119 143 149 139 134 142 138 133 142 152 140 76 37 358 135 124 122 147 150 149 149 127 86 89 91 125 141 146 128 134
23 19 16 14 3 357 359 357 358 355 351 353 351 346 342 335 327 323 319 313 290 256 232 218 207 197 188 180 188 172 150 144 139 141 153 152 154 208 152 135 137 139 142 143 127 101 91 94 90 85 68 73 81 68 53 63 119 144 137 143 147 133 126 114 117 111 118 139 136 289 99 95 114 147 137 133 110 99 77 73 30 109 117 109 117
21 15 8 4 3 356 353 356 358 357 359 356 350 346 343 336 330 324 317 316 283 271 262 228 203 157 155 189 177 150 125 134 139 143 155 155 158 193 135 142 140 133 115 104 112 112 102 93 81 83 72 58 65 48 26 13 67 111 130 144 148 133 124 116 118 108 100 96 112 214 64 62 67 59 58 79 94 120 124 102 55 111 100 100 90
14 5 4 0 0 359 350 348 359 360 358 354 347 346 342 340 337 333 324 317 309 292 259 205 187 169 170 158 140 131 125 132 141 146 143 125 182 158 118 98 91 95 101 103 100 102 104 105 101 82 72 60 53 45 11 355 326 128 120 122 123 133 129 126 114 95 87 96 105 88 87 84 73 65 58 56 59 63 65 90 129 108 103 96 107
9 4 0 352 353 360 357 356 356 357 355 356 352 346 343 346 347 343 341 334 357 33 292 196 197 153 139 140 141 135 137 149 150 144 130 162 154 110 100 93 95 97 100 103 102 97 94 95 95 93 75 60 53 29 0 7 3 104 108 113 120 116 116 112 107 110 111 108 100 93 87 80 80 74 68 62 51 44 56 71 66 69 88 120 113
12 2 357 354 351 357 359 354 353 351 349 356 353 347 355 355 348 351 349 351 2 359 17 4 113 112 140 143 130 122 121 133 135 158 90 240 119 108 98 101 101 99 99 96 93 92 94 96 92 83 79 66 60 16 1 16 27 82 99 103 105 105 104 107 113 114 118 113 103 91 77 74 79 93 100 82 71 63 48 50 60 59 54 51 65
15 5 356 351 350 351 354 354 352 354 352 349 346 356 5 351 352 349 0 13 7 4 10 27 33 87 113 125 122 120 117 114 123 124 113 220 110 106 108 105 104 106 98 91 91 89 84 79 89 89 79 63 60 11 14 27 43 85 96 99 93 100 100 102 106 109 111 110 105 96 83 57 49 53 65 83 92 88 90 84 76 67 52 48 45
11 357 354 351 353 356 357 354 351 351 354 344 351 360 357 357 4 6 14 12 15 12 7 24 29 25 23 108 116 117 109 108 109 109 97 64 81 98 101 107 113 107 99 95 88 86 84 78 75 85 83 60 50 3 14 38 62 94 98 95 96 94 95 94 97 100 101 101 97 100 96 78 37 36 31 32 79 99 93 93 69 65 66 59 60
7 355 355 353 353 356 358 359 358 356 355 356 3 2 355 18 14 18 15 18 15 20 18 12 31 26 12 43 88 103 108 105 119 117 107 101 86 88 90 95 99 102 107 105 102 93 82 80 75 81 80 61 29 5 15 45 70 100 101 98 96 93 88 80 70 67 67 69 74 80 80 81 64 51 31 4 26 53 115 106 89 63 64 55 62
8 354 350 348 350 355 352 352 349 358 5 12 8 354 10 16 20 26 18 23 18 25 21 15 25 29 16 15 59 93 104 106 113 112 106 102 95 91 90 88 88 84 85 97 89 87 88 83 75 76 77 59 27 15 23 40 75 93 86 86 89 88 88 81 71 64 68 69 76 86 90 77 68 48 12 19 30 358 48 64 64 60 50 48 45
355 357 354 345 340 351 352 352 2 9 15 13 1 6 14 22 30 20 22 25 24 25 18 15 18 28 23 18 34 68 92 102 104 98 105 111 107 97 89 96 90 83 85 81 91 89 84 85 79 70 76 65 41 15 22 40 71 100 96 92 87 81 74 73 64 54 55 60 67 83 87 88 66 46 2 33 33 54 55 50 52 53 59 66 32
355 354 2 357 354 348 360 12 10 19 18 4 5 18 23 33 30 25 29 28 26 20 14 18 15 16 35 27 32 29 62 81 95 104 102 96 99 100 83 82 96 95 82 83 90 86 78 73 75 70 69 77 53 26 34 45 61 86 107 106 100 95 87 85 79 64 64 62 51 57 80 91 79 52 12 35 32 53 71 58 55 51 44 42 21
4 3 359 0 357 345 351 14 21 22 8 4 11 32 38 37 31 30 34 33 26 20 15 15 15 13 31 39 39 33 25 54 75 68 88 96 85 91 100 88 91 88 86 88 86 88 82 68 67 76 64 72 66 40 37 50 55 68 96 110 108 102 96 91 93 83 69 68 57 45 46 52 73 64 44 39 36 44 69 50 54 57 46 39 4
6 6 355 1 356 356 15 18 14 4 353 7 12 43 46 40 34 35 38 32 23 17 12 17 22 25 31 34 44 40 30 38 60 70 62 77 102 95 90 85 77 88 93 87 81 82 81 69 61 63 59 56 62 50 37 46 53 54 74 101 109 112 112 109 99 102 99 81 72 60 49 51 57 61 59 51 49 56 69 50 61 68 46 24 345
4 356 347 9 7 16 20 15 7 355 353 4 20 46 46 42 40 41 38 28 19 19 19 23 26 32 32 36 38 43 31 37 39 65 68 57 56 77 88 90 95 94 94 85 83 83 80 72 60 58 64 54 55 62 45 49 53 55 57 83 92 99 110 109 105 92 82 82 66 54 51 37 50 53 51 43 38 41 50 66 60 67 74 271 295
6 4 7 2 6 22 22 22 13 7 6 8 30 51 47 42 45 43 34 29 28 27 27 28 31 31 34 33 34 35 37 39 36 44 65 60 53 60 66 92 103 100 95 91 86 85 84 77 62 54 56 57 54 54 63 46 54 60 58 60 79 71 89 108 96 87 76 69 69 77 59 25 37 42 46 43 35 35 44 67 75 99 89 31 38
12 18 4 1 13 24 23 21 14 16 18 9 29 52 44 40 45 33 27 35 36 36 36 32 29 34 36 33 31 37 38 34 38 33 49 63 61 66 68 76 86 89 91 93 91 92 90 83 73 58 50 51 49 50 50 57 52 60 64 65 68 74 68 78 96 94 91 98 71 45 47 38 47 54 55 54 52 50 58 68 80 41 39 56 68
19 16 3 357 11 14 18 13 16 21 25 26 24 42 45 42 32 8 23 34 37 39 43 38 30 31 36 30 30 34 36 40 41 39 46 51 51 61 66 71 85 93 99 95 88 94 95 89 83 68 50 42 40 56 49 52 57 57 60 63 66 67 72 81 79 91 81 64 47 32 25 31 58 60 68 68 61 66 77 75 73 74 74 65 61
21 13 1 359 4 1 360 15 11 13 16 24 29 38 38 40 18 10 20 37 42 42 48 43 36 35 35 33 36 35 32 35 39 40 43 40 41 43 57 47 76 88 104 111 116 115 101 98 85 76 57 40 33 45 50 42 51 61 58 58 57 57 52 67 77 50 50 46 48 64 69 68 69 72 74 74 69 70 78 81 75 69 67 59 55
24 21 13 5 1 4 5 11 13 12 18 19 21 36 48 32 19 21 22 22 42 55 49 46 40 37 32 33 47 43 38 35 40 43 45 42 49 48 53 47 70 75 87 105 110 101 98 96 97 96 81 59 40 43 42 32 30 45 54 53 57 53 60 67 76 69 68 72 78 79 78 74 68 65 64 60 63 57 58 57 54 54 55 55 51
26 7 7 4 4 1 2 5 13 2 9 17 32 37 52 49 40 25 22 29 40 45 54 55 47 36 36 39 47 45 45 38 35 37 43 44 39 41 51 50 55 77 91 102 104 107 107 104 104 100 90 75 61 49 39 39 22 35 35 40 49 52 60 70 66 66 71 73 69 72 78 79 80 71 69 66 61 50 49 45 44 46 52 52 54
15 19 12 2 359 354 354 355 354 346 352 3 17 24 35 49 45 47 38 34 37 42 45 42 51 50 37 36 44 50 59 59 46 42 39 34 36 42 55 47 36 26 87 110 106 109 114 118 116 110 104 85 74 64 47 39 30 32 42 52 61 59 58 66 79 71 75 73 75 70 63 54 58 55 50 46 43 48 51 48 45 41 42 39 43
32 2 10 28 16 8 358 355 342 335 346 356 3 11 9 31 41 40 40 45 43 40 42 38 31 45 50 40 51 50 55 63 70 67 61 52 41 33 53 65 37 16 357 92 117 103 106 113 122 127 112 91 66 64 38 108 64 54 53 65 64 65 63 73 41 63 89 68 64 56 53 52 50 58 51 47 38 41 40 39 41 34 33 41 43
4 0 13 31 33 37 29 21 12 5 4 355 347 354 8 7 13 34 46 50 47 44 42 40 37 30 26 46 55 52 54 56 57 62 72 71 61 65 51 55 36 18 37 37 52 108 128 123 97 35 0 109 118 132 148 163 165 92 75 75 81 76 62 77 78 77 80 74 66 68 55 60 55 57 58 52 44 40 39 35 29 26 32 43 47
143 66 27 23 26 44 42 29 15 14 27 27 5 347 3 17 20 15 27 33 34 44 44 48 54 48 44 39 32 41 44 57 57 65 65 73 69 54 61 63 57 45 41 44 55 60 61 48 99 112 38 47 89 112 130 156 90 87 91 78 71 73 69 66 89 79 57 68 72 71 62 57 61 65 66 62 55 56 41 46 33 27 29 30 33